Updated24/08/2019 12:40 
 

Dummy
GeoURL
free counters
Scottish Weather Network UK Weather Network Cumulus Top Weather Sites

Peebles Weather - Live Gauges

Raw Data, Raw Data Expanded

Ignore low humidity and Dew Point values. Something wrong with the sensor.
Daytime temperatures are in direct sunlight so may be higher than official air temperature values.
As with any other website, we log your IP address and browser type in the server logs for diagnostic reasons. Cookies are used to record visit time and gauges preferences. No personal information is stored or processed.

All times are in local time (GMT, or BST in summer) unless specified.

2019/08/24 11:20 EGPH 241120Z 21007KT 180V250 CAVOK 22/15 Q1018
24.1°C 0.0 mm 0.0 mm 0.0 mm 3.9 mph 9.2 mph 1013.5 hPa 55% X-Ray Solar Flare Level
Planetary K-Index
Planetary K-Index History
Station Warn Rain Snow Flood Wind Ltng Heat Cold Glob Moon Temp Rain 1h Rain Sat Rain 24h Wind 10m Gust Pressure Hum Proton Levels

0.39 m Waning Crescent Comfortable F1-S F: A: Kp:0 SSN:0

Gauges

. Peebles Weather Steel Gauges
Time at station location

      



Temperature:
Rainfall:
Pressure:
Wind Speed:
CloudBase:
 
 
 
 

Scripts: Mark Crossley - version
Gauges: Gerrit Grunwald's SteelSeries JavaScript library
Wind Rose: RGraph
A cookie is used to store your UoM and gauge preferences
powered by v (b)


XHTML 1.1 | CSS